TAP1550 GVAC-LPPT

Flight info

Callsign TAP1550
Flight time 3h 45m
Altitude 39000
Route DIMKI1A DIMKI DCT IPERA N873 LIMAL/N0453F380 DCT UDATI DCT ODEGI DCT LOMAS DCT GDV DCT VASTO DCT BAROK DCT VATZI
Aircraft A20N/M-SADE3FGHIJ1RWXYZ/LB1

Departure

Time 2026-04-21 18:22
Airport Amílcar Cabral International Airport (GVAC)

Arrival

Time 2026-04-21 22:08
Airport Lisbon Humberto Delgado Airport (LPPT)
Time Latitude Longitude Altitude Speed Heading
2026-04-21 18:05 16.73235 -22.94498 200 ft 0 kts 89°
2026-04-21 18:13 16.73235 -22.94499 200 ft 0 kts 89°
2026-04-21 18:14 16.73235 -22.94508 213 ft 1 kts 91°
2026-04-21 18:14 16.73235 -22.94514 213 ft 1 kts 91°
2026-04-21 18:14 16.73235 -22.94520 213 ft 1 kts 91°
2026-04-21 18:15 16.73235 -22.94526 203 ft 1 kts 91°
2026-04-21 18:15 16.73235 -22.94532 204 ft 1 kts 91°
2026-04-21 18:16 16.73235 -22.94537 206 ft 1 kts 90°
2026-04-21 18:16 16.73235 -22.94550 210 ft 3 kts 97°
2026-04-21 18:16 16.73238 -22.94568 209 ft 3 kts 102°
2026-04-21 18:16 16.73244 -22.94585 213 ft 3 kts 114°
2026-04-21 18:17 16.73253 -22.94595 213 ft 0 kts 176°
2026-04-21 18:19 16.73242 -22.94594 213 ft 4 kts 176°
2026-04-21 18:19 16.73187 -22.94596 209 ft 12 kts 180°
2026-04-21 18:19 16.73092 -22.94613 203 ft 15 kts 230°
2026-04-21 18:19 16.73013 -22.94693 209 ft 15 kts 195°
2026-04-21 18:20 16.72908 -22.94693 193 ft 20 kts 179°
2026-04-21 18:20 16.72755 -22.94688 194 ft 23 kts 179°
2026-04-21 18:20 16.72579 -22.94683 184 ft 27 kts 178°
2026-04-21 18:20 16.72411 -22.94727 183 ft 18 kts 245°
2026-04-21 18:21 16.72408 -22.94813 185 ft 11 kts 267°
2026-04-21 18:21 16.72420 -22.94889 199 ft 6 kts 300°
2026-04-21 18:21 16.72434 -22.94902 193 ft 0 kts 327°
2026-04-21 18:21 16.72467 -22.94893 197 ft 14 kts 20°
2026-04-21 18:22 16.72694 -22.94891 194 ft 64 kts
2026-04-21 18:22 16.73332 -22.94893 197 ft 120 kts 359°
2026-04-21 18:22 16.74318 -22.94895 282 ft 154 kts
2026-04-21 18:22 16.75364 -22.94894 912 ft 149 kts
2026-04-21 18:23 16.76424 -22.94912 1482 ft 156 kts
2026-04-21 18:23 16.77536 -22.94951 1970 ft 166 kts
2026-04-21 18:23 16.78772 -22.94980 2241 ft 188 kts
2026-04-21 18:23 16.80166 -22.94990 2563 ft 213 kts
2026-04-21 18:24 16.81724 -22.95017 3070 ft 234 kts
2026-04-21 18:24 16.83422 -22.95025 3622 ft 251 kts
2026-04-21 18:24 16.85209 -22.95021 4375 ft 262 kts 359°
2026-04-21 18:24 16.87079 -22.95013 5031 ft 274 kts 358°
2026-04-21 18:25 16.88995 -22.95008 5875 ft 277 kts 356°
2026-04-21 18:25 16.90941 -22.94961 6613 ft 285 kts
2026-04-21 18:25 16.92879 -22.94388 7314 ft 297 kts 22°
2026-04-21 18:25 16.94656 -22.93210 8010 ft 306 kts 32°
2026-04-21 18:26 16.96409 -22.91925 8741 ft 311 kts 32°
2026-04-21 18:26 16.98199 -22.90618 9459 ft 316 kts 32°
2026-04-21 18:26 17.00022 -22.89296 10135 ft 322 kts 31°
2026-04-21 18:26 17.01921 -22.87927 10429 ft 343 kts 31°
2026-04-21 18:27 17.03951 -22.86467 10638 ft 364 kts 32°
2026-04-21 18:27 17.06071 -22.84939 11134 ft 373 kts 32°
2026-04-21 18:27 17.08213 -22.83390 11851 ft 376 kts 32°
2026-04-21 18:27 17.10376 -22.81826 12511 ft 380 kts 32°
2026-04-21 18:28 17.12562 -22.80247 13202 ft 384 kts 32°
2026-04-21 18:28 17.14768 -22.78653 13863 ft 387 kts 32°
2026-04-21 18:28 17.16990 -22.77048 14475 ft 390 kts 32°
2026-04-21 18:28 17.19229 -22.75430 15115 ft 392 kts 32°
2026-04-21 18:29 17.21479 -22.73803 15725 ft 395 kts 32°
2026-04-21 18:29 17.23748 -22.72162 16320 ft 398 kts 32°
2026-04-21 18:29 17.26030 -22.70511 16911 ft 401 kts 32°
2026-04-21 18:29 17.28329 -22.68846 17496 ft 403 kts 32°
2026-04-21 18:30 17.30644 -22.67170 18093 ft 406 kts 32°
2026-04-21 18:30 17.32976 -22.65481 18604 ft 409 kts 31°
2026-04-21 18:30 17.35315 -22.63785 19112 ft 410 kts 31°
2026-04-21 18:30 17.37669 -22.62078 19598 ft 413 kts 31°
2026-04-21 18:31 17.40038 -22.60359 20090 ft 415 kts 30°
2026-04-21 18:31 17.42417 -22.58633 20547 ft 418 kts 30°
2026-04-21 18:31 17.44814 -22.56894 21017 ft 420 kts 30°
2026-04-21 18:31 17.47223 -22.55144 21473 ft 423 kts 30°
2026-04-21 18:32 17.49614 -22.53407 21922 ft 425 kts 29°
2026-04-21 18:32 17.52048 -22.51638 22351 ft 428 kts 29°
2026-04-21 18:32 17.54499 -22.49856 22775 ft 430 kts 28°
2026-04-21 18:32 17.56965 -22.48063 23199 ft 432 kts 28°
2026-04-21 18:33 17.59444 -22.46259 23605 ft 435 kts 28°
2026-04-21 18:33 17.61938 -22.44445 23920 ft 438 kts 28°
2026-04-21 18:33 17.64447 -22.42620 24238 ft 441 kts 28°
2026-04-21 18:33 17.67006 -22.40757 24562 ft 443 kts 28°
2026-04-21 18:34 17.69512 -22.38931 24867 ft 446 kts 28°
2026-04-21 18:34 17.72071 -22.37067 25168 ft 449 kts 28°
2026-04-21 18:34 17.74643 -22.35193 25477 ft 452 kts 28°
2026-04-21 18:34 17.77230 -22.33307 25778 ft 454 kts 28°
2026-04-21 18:35 17.78984 -22.32028 25981 ft 456 kts 28°
2026-04-21 18:35 17.82447 -22.29501 26363 ft 459 kts 28°
2026-04-21 18:35 17.85078 -22.27580 26658 ft 462 kts 28°
2026-04-21 18:35 17.87723 -22.25650 26944 ft 464 kts 28°
2026-04-21 18:36 17.90433 -22.23836 27215 ft 462 kts 23°
2026-04-21 18:36 17.93220 -22.22132 27483 ft 465 kts 23°
2026-04-21 18:36 17.96016 -22.20416 27764 ft 467 kts 23°
2026-04-21 18:36 17.98830 -22.18687 28038 ft 469 kts 23°
2026-04-21 18:37 18.01653 -22.16951 28300 ft 471 kts 23°
2026-04-21 18:37 18.04487 -22.15206 28568 ft 473 kts 23°
2026-04-21 18:37 18.07333 -22.13454 28806 ft 476 kts 23°
2026-04-21 18:37 18.10194 -22.11692 29079 ft 477 kts 23°
2026-04-21 18:38 18.13067 -22.09922 29341 ft 479 kts 23°
2026-04-21 18:38 18.15949 -22.08145 29566 ft 482 kts 23°
2026-04-21 18:38 18.18846 -22.06358 29829 ft 484 kts 23°
2026-04-21 18:38 18.21751 -22.04566 30071 ft 486 kts 23°
2026-04-21 18:39 18.24672 -22.02763 30283 ft 488 kts 23°
2026-04-21 18:39 18.27608 -22.00951 30479 ft 490 kts 23°
2026-04-21 18:39 18.30552 -21.99132 30692 ft 492 kts 23°
2026-04-21 18:39 18.33514 -21.97303 30903 ft 494 kts 23°
2026-04-21 18:40 18.36485 -21.95466 31143 ft 496 kts 23°
2026-04-21 18:40 18.39457 -21.93627 31419 ft 496 kts 23°
2026-04-21 18:40 18.41430 -21.92406 31604 ft 496 kts 23°
2026-04-21 18:40 18.45415 -21.89938 31967 ft 497 kts 23°
2026-04-21 18:41 18.48395 -21.88093 32229 ft 497 kts 23°
2026-04-21 18:41 18.51377 -21.86246 32491 ft 497 kts 23°
2026-04-21 18:41 18.54355 -21.84400 32749 ft 498 kts 23°
2026-04-21 18:41 18.57346 -21.82546 32993 ft 498 kts 23°
2026-04-21 18:42 18.60332 -21.80694 33241 ft 498 kts 23°
2026-04-21 18:42 18.63317 -21.78841 33467 ft 499 kts 23°
2026-04-21 18:42 18.66268 -21.77009 33695 ft 499 kts 23°
2026-04-21 18:42 18.69308 -21.75121 33920 ft 500 kts 23°
2026-04-21 18:43 18.72300 -21.73262 34125 ft 500 kts 23°
2026-04-21 18:43 18.75291 -21.71402 34361 ft 499 kts 23°
2026-04-21 18:43 18.78278 -21.69544 34602 ft 497 kts 23°
2026-04-21 18:43 18.81217 -21.67715 34809 ft 497 kts 23°
2026-04-21 18:44 18.84230 -21.65840 35032 ft 496 kts 23°
2026-04-21 18:44 18.87158 -21.64017 35241 ft 495 kts 23°
2026-04-21 18:44 18.90163 -21.62145 35457 ft 494 kts 23°
2026-04-21 18:44 18.93117 -21.60305 35681 ft 493 kts 23°
2026-04-21 18:45 18.96073 -21.58462 35885 ft 492 kts 23°
2026-04-21 18:45 18.99022 -21.56624 36101 ft 492 kts 23°
2026-04-21 18:45 19.01926 -21.54812 36297 ft 491 kts 23°
2026-04-21 18:45 19.04903 -21.52954 36502 ft 490 kts 23°
2026-04-21 18:46 19.07840 -21.51121 36691 ft 490 kts 23°
2026-04-21 18:46 19.10701 -21.49334 36878 ft 489 kts 23°
2026-04-21 18:46 19.13663 -21.47483 36969 ft 489 kts 23°
2026-04-21 18:47 19.19503 -21.43831 36975 ft 487 kts 23°
2026-04-21 18:47 19.25341 -21.40178 36977 ft 488 kts 23°
2026-04-21 18:48 19.31216 -21.36498 36976 ft 487 kts 23°
2026-04-21 18:48 19.37006 -21.32867 36977 ft 487 kts 23°
2026-04-21 18:49 19.42821 -21.29218 36973 ft 486 kts 23°
2026-04-21 18:49 19.47705 -21.26151 36971 ft 486 kts 22°
2026-04-21 18:50 19.54461 -21.21905 36969 ft 486 kts 22°
2026-04-21 18:50 19.60275 -21.18248 36970 ft 486 kts 22°
2026-04-21 18:51 19.65101 -21.15210 36973 ft 485 kts 22°
2026-04-21 18:51 19.70906 -21.11552 36976 ft 485 kts 22°
2026-04-21 18:52 19.76714 -21.07890 36969 ft 485 kts 22°
2026-04-21 18:52 19.82513 -21.04230 36974 ft 485 kts 22°
2026-04-21 18:53 19.89262 -20.99968 37090 ft 486 kts 22°
2026-04-21 18:53 19.91227 -20.98726 37222 ft 485 kts 22°
2026-04-21 18:53 19.94124 -20.96892 37420 ft 484 kts 22°
2026-04-21 18:53 19.97014 -20.95063 37606 ft 483 kts 22°
2026-04-21 18:54 19.99896 -20.93239 37785 ft 482 kts 22°
2026-04-21 18:54 20.02775 -20.91416 37957 ft 481 kts 22°
2026-04-21 18:54 20.05649 -20.89596 38121 ft 480 kts 22°
2026-04-21 18:54 20.08513 -20.87781 38291 ft 479 kts 21°
2026-04-21 18:55 20.11374 -20.85967 38433 ft 478 kts 21°
2026-04-21 18:55 20.14232 -20.84154 38583 ft 477 kts 21°
2026-04-21 18:55 20.17079 -20.82348 38715 ft 476 kts 21°
2026-04-21 18:56 20.22769 -20.78735 38881 ft 476 kts 21°
2026-04-21 18:56 20.28469 -20.75114 38978 ft 476 kts 21°
2026-04-21 18:57 20.34110 -20.71526 38979 ft 475 kts 21°
2026-04-21 18:57 20.39787 -20.67911 38979 ft 475 kts 21°
2026-04-21 18:58 20.45456 -20.64287 38977 ft 475 kts 21°
2026-04-21 18:58 20.51123 -20.60664 38978 ft 475 kts 21°
2026-04-21 18:59 20.56788 -20.57040 38981 ft 475 kts 21°
2026-04-21 18:59 20.62445 -20.53418 38979 ft 474 kts 21°
2026-04-21 19:00 20.68100 -20.49794 38977 ft 474 kts 21°
2026-04-21 19:00 20.73758 -20.46165 38973 ft 474 kts 21°
2026-04-21 19:01 20.79417 -20.42532 38972 ft 474 kts 21°
2026-04-21 19:01 20.85064 -20.38903 38973 ft 474 kts 21°
2026-04-21 19:02 20.90717 -20.35268 38975 ft 474 kts 21°
2026-04-21 19:02 20.96378 -20.31625 38983 ft 475 kts 21°
2026-04-21 19:03 21.02046 -20.27974 38978 ft 475 kts 21°
2026-04-21 19:03 21.07702 -20.24326 38977 ft 475 kts 20°
2026-04-21 19:04 21.13376 -20.20664 38975 ft 476 kts 20°
2026-04-21 19:04 21.19053 -20.16997 38974 ft 477 kts 20°
2026-04-21 19:05 21.24738 -20.13322 38990 ft 478 kts 20°
2026-04-21 19:05 21.30427 -20.09639 38989 ft 477 kts 20°
2026-04-21 19:06 21.36104 -20.05960 38984 ft 477 kts 20°
2026-04-21 19:06 21.41787 -20.02277 38979 ft 477 kts 20°
2026-04-21 19:07 21.47470 -19.98589 38982 ft 477 kts 20°
2026-04-21 19:07 21.53157 -19.94895 38980 ft 478 kts 20°
2026-04-21 19:08 21.58840 -19.91200 38984 ft 478 kts 20°
2026-04-21 19:08 21.64529 -19.87498 38982 ft 478 kts 20°
2026-04-21 19:09 21.70213 -19.83796 38976 ft 478 kts 20°
2026-04-21 19:09 21.75898 -19.80089 38978 ft 478 kts 20°
2026-04-21 19:10 21.81590 -19.76375 38976 ft 478 kts 20°
2026-04-21 19:10 21.87279 -19.72659 38977 ft 478 kts 20°
2026-04-21 19:11 21.92969 -19.68939 38981 ft 479 kts 20°
2026-04-21 19:11 21.98663 -19.65212 38980 ft 479 kts 20°
2026-04-21 19:12 22.04321 -19.61506 38986 ft 479 kts 20°
2026-04-21 19:12 22.10017 -19.57772 38985 ft 480 kts 19°
2026-04-21 19:13 22.15723 -19.54024 38987 ft 480 kts 19°
2026-04-21 19:13 22.21427 -19.50276 38979 ft 480 kts 19°
2026-04-21 19:14 22.27136 -19.46523 38986 ft 481 kts 19°
2026-04-21 19:14 22.32845 -19.42765 38982 ft 481 kts 19°
2026-04-21 19:15 22.38561 -19.38999 38988 ft 481 kts 19°
2026-04-21 19:15 22.44280 -19.35227 38988 ft 482 kts 19°
2026-04-21 19:16 22.50000 -19.31450 38992 ft 482 kts 19°
2026-04-21 19:16 22.55684 -19.27694 38992 ft 482 kts 19°
2026-04-21 19:17 22.64254 -19.22021 38983 ft 480 kts 19°
2026-04-21 19:17 22.69956 -19.18243 38985 ft 480 kts 19°
2026-04-21 19:18 22.75653 -19.14467 38984 ft 480 kts 19°
2026-04-21 19:18 22.81348 -19.10686 38983 ft 480 kts 19°
2026-04-21 19:19 22.87037 -19.06905 38983 ft 479 kts 19°
2026-04-21 19:19 22.92715 -19.03128 38983 ft 478 kts 18°
2026-04-21 19:20 22.98385 -18.99353 38985 ft 478 kts 18°
2026-04-21 19:20 23.04042 -18.95583 38985 ft 477 kts 18°
2026-04-21 19:21 23.09695 -18.91812 38984 ft 476 kts 18°
2026-04-21 19:21 23.15295 -18.88072 38985 ft 476 kts 18°
2026-04-21 19:22 23.20934 -18.84303 38984 ft 475 kts 18°
2026-04-21 19:22 23.26567 -18.80534 38986 ft 475 kts 18°
2026-04-21 19:23 23.32223 -18.76745 38980 ft 474 kts 18°
2026-04-21 19:23 23.37806 -18.73003 38982 ft 474 kts 18°
2026-04-21 19:24 23.43416 -18.69238 38990 ft 474 kts 18°
2026-04-21 19:24 23.49024 -18.65470 38989 ft 473 kts 18°
2026-04-21 19:25 23.54623 -18.61705 38983 ft 473 kts 18°
2026-04-21 19:25 23.60221 -18.57936 38982 ft 473 kts 18°
2026-04-21 19:26 23.65814 -18.54167 38981 ft 473 kts 18°
2026-04-21 19:26 23.71407 -18.50394 38981 ft 473 kts 18°
2026-04-21 19:27 23.76997 -18.46620 38982 ft 472 kts 18°
2026-04-21 19:27 23.82584 -18.42844 38982 ft 472 kts 18°
2026-04-21 19:28 23.88175 -18.39061 38986 ft 472 kts 17°
2026-04-21 19:28 23.93763 -18.35276 38988 ft 473 kts 17°
2026-04-21 19:29 23.99352 -18.31487 38985 ft 473 kts 17°
2026-04-21 19:29 24.04904 -18.27718 38986 ft 473 kts 17°
2026-04-21 19:30 24.10488 -18.23924 38987 ft 473 kts 17°
2026-04-21 19:30 24.16078 -18.20123 38985 ft 473 kts 17°
2026-04-21 19:31 24.21668 -18.16317 38987 ft 473 kts 17°
2026-04-21 19:31 24.27259 -18.12506 38987 ft 473 kts 17°
2026-04-21 19:32 24.32849 -18.08691 38986 ft 473 kts 17°
2026-04-21 19:32 24.38439 -18.04873 38974 ft 474 kts 17°
2026-04-21 19:33 24.44034 -18.01048 38985 ft 474 kts 17°
2026-04-21 19:33 24.49628 -17.97219 38980 ft 474 kts 17°
2026-04-21 19:34 24.55225 -17.93385 38984 ft 474 kts 17°
2026-04-21 19:34 24.60829 -17.89541 38983 ft 475 kts 17°
2026-04-21 19:35 24.69207 -17.83788 38979 ft 476 kts 17°
2026-04-21 19:36 24.74819 -17.79927 38986 ft 476 kts 17°
2026-04-21 19:36 24.80440 -17.76058 38987 ft 477 kts 17°
2026-04-21 19:37 24.86060 -17.72185 38993 ft 477 kts 17°
2026-04-21 19:37 24.91685 -17.68305 38994 ft 477 kts 17°
2026-04-21 19:38 24.97308 -17.64421 38985 ft 476 kts 17°
2026-04-21 19:38 25.01962 -17.61203 38988 ft 475 kts 17°
2026-04-21 19:39 25.08509 -17.56664 38984 ft 476 kts 17°
2026-04-21 19:39 25.14110 -17.52777 38982 ft 475 kts 16°
2026-04-21 19:40 25.19703 -17.48892 38984 ft 475 kts 16°
2026-04-21 19:40 25.25261 -17.45027 38986 ft 475 kts 16°
2026-04-21 19:41 25.30891 -17.41109 38984 ft 475 kts 16°
2026-04-21 19:41 25.36439 -17.37243 38980 ft 475 kts 16°
2026-04-21 19:42 25.42025 -17.33346 38981 ft 475 kts 16°
2026-04-21 19:42 25.47608 -17.29446 38983 ft 475 kts 16°
2026-04-21 19:43 25.53189 -17.25544 38982 ft 474 kts 16°
2026-04-21 19:43 25.58769 -17.21637 38978 ft 474 kts 16°
2026-04-21 19:44 25.63403 -17.18390 38982 ft 474 kts 16°
2026-04-21 19:44 25.68973 -17.14483 38979 ft 474 kts 16°
2026-04-21 19:45 25.74538 -17.10575 38981 ft 473 kts 16°
2026-04-21 19:45 25.80101 -17.06665 38984 ft 473 kts 16°
2026-04-21 19:46 25.85659 -17.02754 38985 ft 473 kts 16°
2026-04-21 19:46 25.91211 -16.98842 38985 ft 472 kts 16°
2026-04-21 19:47 25.96755 -16.94933 38982 ft 472 kts 16°
2026-04-21 19:47 26.02300 -16.91017 38983 ft 472 kts 16°
2026-04-21 19:48 26.07828 -16.87109 38978 ft 471 kts 16°
2026-04-21 19:48 26.13321 -16.83223 38976 ft 471 kts 17°
2026-04-21 19:49 26.18842 -16.79313 38982 ft 470 kts 17°
2026-04-21 19:49 26.24355 -16.75411 38971 ft 469 kts 17°
2026-04-21 19:50 26.29872 -16.71507 38976 ft 469 kts 17°
2026-04-21 19:50 26.35375 -16.67608 38975 ft 469 kts 18°
2026-04-21 19:51 26.40876 -16.63706 38971 ft 468 kts 18°
2026-04-21 19:51 26.46364 -16.59807 38972 ft 468 kts 18°
2026-04-21 19:52 26.51859 -16.55899 38973 ft 468 kts 19°
2026-04-21 19:52 26.57345 -16.51993 38973 ft 468 kts 19°
2026-04-21 19:53 26.62832 -16.48081 38975 ft 468 kts 19°
2026-04-21 19:53 26.68319 -16.44166 38977 ft 468 kts 20°
2026-04-21 19:54 26.73804 -16.40246 38977 ft 468 kts 20°
2026-04-21 19:54 26.79287 -16.36324 38980 ft 468 kts 20°
2026-04-21 19:55 26.84768 -16.32398 38978 ft 468 kts 21°
2026-04-21 19:55 26.90249 -16.28468 38980 ft 468 kts 21°
2026-04-21 19:56 26.95729 -16.24526 38986 ft 468 kts 21°
2026-04-21 19:56 27.01171 -16.20605 38985 ft 468 kts 22°
2026-04-21 19:57 27.06648 -16.16656 38983 ft 468 kts 22°
2026-04-21 19:57 27.12104 -16.12715 38973 ft 466 kts 22°
2026-04-21 19:58 27.17550 -16.08779 38979 ft 465 kts 23°
2026-04-21 19:58 27.22992 -16.04842 38976 ft 465 kts 23°
2026-04-21 19:59 27.28430 -16.00901 38974 ft 465 kts 23°
2026-04-21 19:59 27.33862 -15.96961 38976 ft 465 kts 24°
2026-04-21 20:00 27.39293 -15.93016 38982 ft 465 kts 24°
2026-04-21 20:00 27.44721 -15.89070 38984 ft 464 kts 24°
2026-04-21 20:01 27.50140 -15.85124 38979 ft 462 kts 24°
2026-04-21 20:01 27.55531 -15.81194 38973 ft 462 kts 24°
2026-04-21 20:02 27.60926 -15.77258 38977 ft 461 kts 24°
2026-04-21 20:02 27.66308 -15.73325 38983 ft 461 kts 24°
2026-04-21 20:03 27.71689 -15.69389 38975 ft 461 kts 25°
2026-04-21 20:03 27.77061 -15.65454 38977 ft 460 kts 25°
2026-04-21 20:04 27.82431 -15.61517 38975 ft 460 kts 25°
2026-04-21 20:04 27.87777 -15.57590 38954 ft 457 kts 25°
2026-04-21 20:05 27.93075 -15.53697 38967 ft 459 kts 25°
2026-04-21 20:05 27.98428 -15.49759 38968 ft 458 kts 25°
2026-04-21 20:06 28.03797 -15.45801 38969 ft 458 kts 25°
2026-04-21 20:06 28.09094 -15.41892 38990 ft 457 kts 25°
2026-04-21 20:07 28.14407 -15.37944 38988 ft 457 kts 26°
2026-04-21 20:07 28.19715 -15.33997 38993 ft 456 kts 26°
2026-04-21 20:08 28.25029 -15.30045 38987 ft 456 kts 26°
2026-04-21 20:08 28.30332 -15.26095 38987 ft 456 kts 26°
2026-04-21 20:09 28.35628 -15.22145 38993 ft 456 kts 26°
2026-04-21 20:09 28.40923 -15.18191 38989 ft 455 kts 26°
2026-04-21 20:10 28.46215 -15.14234 38999 ft 455 kts 26°
2026-04-21 20:10 28.51499 -15.10278 38993 ft 455 kts 26°
2026-04-21 20:11 28.56777 -15.06322 38996 ft 454 kts 26°
2026-04-21 20:11 28.62050 -15.02365 38987 ft 454 kts 26°
2026-04-21 20:12 28.67317 -14.98407 38990 ft 453 kts 26°
2026-04-21 20:12 28.72577 -14.94451 38988 ft 453 kts 26°
2026-04-21 20:13 28.77826 -14.90498 38992 ft 452 kts 26°
2026-04-21 20:13 28.83079 -14.86536 38991 ft 452 kts 26°
2026-04-21 20:14 28.88319 -14.82580 38990 ft 452 kts 26°
2026-04-21 20:14 28.93559 -14.78619 38991 ft 452 kts 27°
2026-04-21 20:15 28.98794 -14.74657 38987 ft 451 kts 27°
2026-04-21 20:15 29.04029 -14.70690 38991 ft 451 kts 27°
2026-04-21 20:16 29.09259 -14.66722 38986 ft 451 kts 27°
2026-04-21 20:16 29.14484 -14.62752 38987 ft 451 kts 27°
2026-04-21 20:17 29.19711 -14.58776 38987 ft 451 kts 27°
2026-04-21 20:17 29.24937 -14.54797 38989 ft 451 kts 27°
2026-04-21 20:18 29.29273 -14.51491 38989 ft 451 kts 27°
2026-04-21 20:18 29.35374 -14.46833 38986 ft 451 kts 27°
2026-04-21 20:19 29.40592 -14.42845 38985 ft 451 kts 27°
2026-04-21 20:19 29.45810 -14.38851 38989 ft 451 kts 27°
2026-04-21 20:20 29.51021 -14.34858 38991 ft 451 kts 27°
2026-04-21 20:20 29.56197 -14.30886 38991 ft 451 kts 27°
2026-04-21 20:21 29.61410 -14.26881 38992 ft 451 kts 27°
2026-04-21 20:21 29.66623 -14.22871 38990 ft 451 kts 27°
2026-04-21 20:22 29.71829 -14.18861 38992 ft 450 kts 27°
2026-04-21 20:22 29.79633 -14.12840 38992 ft 450 kts 27°
2026-04-21 20:23 29.84833 -14.08823 38994 ft 450 kts 28°
2026-04-21 20:24 29.94896 -14.01033 38993 ft 450 kts 28°
2026-04-21 20:24 30.00082 -13.97011 38993 ft 449 kts 28°
2026-04-21 20:25 30.05272 -13.92981 38993 ft 449 kts 28°
2026-04-21 20:25 30.10450 -13.88955 38993 ft 449 kts 28°
2026-04-21 20:26 30.15627 -13.84924 38985 ft 448 kts 28°
2026-04-21 20:26 30.20795 -13.80896 38986 ft 448 kts 28°
2026-04-21 20:27 30.25964 -13.76860 38985 ft 448 kts 28°
2026-04-21 20:27 30.31122 -13.72829 38986 ft 448 kts 28°
2026-04-21 20:28 30.36287 -13.68787 38984 ft 448 kts 28°
2026-04-21 20:28 30.41443 -13.64747 38986 ft 447 kts 28°
2026-04-21 20:29 30.46593 -13.60707 38988 ft 447 kts 28°
2026-04-21 20:29 30.51795 -13.56772 38987 ft 443 kts 23°
2026-04-21 20:30 30.57246 -13.53458 38987 ft 442 kts 22°
2026-04-21 20:30 30.62687 -13.50148 38985 ft 442 kts 22°
2026-04-21 20:31 30.68131 -13.46834 38986 ft 442 kts 22°
2026-04-21 20:31 30.73581 -13.43515 38987 ft 442 kts 22°
2026-04-21 20:32 30.79028 -13.40194 38989 ft 442 kts 22°
2026-04-21 20:32 30.84480 -13.36865 38985 ft 442 kts 22°
2026-04-21 20:33 30.89924 -13.33535 38987 ft 442 kts 22°
2026-04-21 20:33 30.95375 -13.30197 38988 ft 442 kts 22°
2026-04-21 20:34 31.00821 -13.26857 38991 ft 443 kts 22°
2026-04-21 20:34 31.06267 -13.23512 38990 ft 443 kts 22°
2026-04-21 20:35 31.11708 -13.20166 38989 ft 443 kts 22°
2026-04-21 20:35 31.17162 -13.16808 38990 ft 443 kts 22°
2026-04-21 20:36 31.22608 -13.13450 38989 ft 443 kts 22°
2026-04-21 20:36 31.28057 -13.10086 38993 ft 443 kts 22°
2026-04-21 20:37 31.33507 -13.06718 38994 ft 443 kts 22°
2026-04-21 20:37 31.38951 -13.03348 38995 ft 443 kts 22°
2026-04-21 20:38 31.44392 -12.99975 38981 ft 443 kts 22°
2026-04-21 20:38 31.49834 -12.96598 38990 ft 443 kts 22°
2026-04-21 20:39 31.55280 -12.93214 38987 ft 443 kts 22°
2026-04-21 20:39 31.60681 -12.89853 38991 ft 443 kts 22°
2026-04-21 20:40 31.66164 -12.86437 38989 ft 443 kts 22°
2026-04-21 20:40 31.71609 -12.83040 38987 ft 443 kts 22°
2026-04-21 20:41 31.77051 -12.79640 38981 ft 443 kts 22°
2026-04-21 20:41 31.82491 -12.76237 38991 ft 443 kts 22°
2026-04-21 20:42 31.87937 -12.72825 38990 ft 443 kts 22°
2026-04-21 20:42 31.93381 -12.69410 38990 ft 444 kts 22°
2026-04-21 20:43 31.98828 -12.65989 38986 ft 444 kts 22°
2026-04-21 20:43 32.04273 -12.62564 38985 ft 444 kts 22°
2026-04-21 20:44 32.09727 -12.59129 38987 ft 444 kts 22°
2026-04-21 20:44 32.15179 -12.55690 38988 ft 445 kts 23°
2026-04-21 20:45 32.20635 -12.52243 38988 ft 445 kts 23°
2026-04-21 20:45 32.26087 -12.48795 38984 ft 445 kts 23°
2026-04-21 20:46 32.30623 -12.45922 38990 ft 445 kts 23°
2026-04-21 20:46 32.36087 -12.42458 38988 ft 445 kts 23°
2026-04-21 20:47 32.41547 -12.38991 38990 ft 446 kts 23°
2026-04-21 20:47 32.47015 -12.35515 38989 ft 446 kts 23°
2026-04-21 20:48 32.52477 -12.32038 38989 ft 446 kts 23°
2026-04-21 20:48 32.57948 -12.28549 38990 ft 446 kts 23°
2026-04-21 20:49 32.63419 -12.25057 38988 ft 447 kts 23°
2026-04-21 20:49 32.68889 -12.21559 38988 ft 447 kts 23°
2026-04-21 20:50 32.74365 -12.18053 38989 ft 447 kts 23°
2026-04-21 20:50 32.79839 -12.14544 38991 ft 447 kts 23°
2026-04-21 20:51 32.85316 -12.11028 38993 ft 447 kts 23°
2026-04-21 20:51 32.90790 -12.07508 38991 ft 448 kts 23°
2026-04-21 20:52 32.96270 -12.03979 38990 ft 448 kts 23°
2026-04-21 20:52 33.01751 -12.00445 38989 ft 448 kts 23°
2026-04-21 20:53 33.07231 -11.96907 38989 ft 448 kts 23°
2026-04-21 20:53 33.12716 -11.93361 38989 ft 448 kts 23°
2026-04-21 20:54 33.18196 -11.89812 38990 ft 448 kts 23°
2026-04-21 20:54 33.23681 -11.86255 38990 ft 449 kts 23°
2026-04-21 20:55 33.29168 -11.82692 38980 ft 449 kts 23°
2026-04-21 20:55 33.34651 -11.79126 38978 ft 449 kts 23°
2026-04-21 20:56 33.40101 -11.75576 38975 ft 449 kts 23°
2026-04-21 20:56 33.45590 -11.71996 38978 ft 449 kts 23°
2026-04-21 20:57 33.51077 -11.68412 38983 ft 450 kts 23°
2026-04-21 20:57 33.56577 -11.64815 38983 ft 450 kts 23°
2026-04-21 20:58 33.62074 -11.61214 38979 ft 450 kts 23°
2026-04-21 20:58 33.67575 -11.57604 38980 ft 451 kts 23°
2026-04-21 20:59 33.73081 -11.53987 38981 ft 451 kts 23°
2026-04-21 20:59 33.78592 -11.50361 38981 ft 452 kts 23°
2026-04-21 21:00 33.84100 -11.46731 38985 ft 452 kts 23°
2026-04-21 21:00 33.89617 -11.43090 38984 ft 452 kts 23°
2026-04-21 21:01 33.95135 -11.39444 38980 ft 452 kts 24°
2026-04-21 21:01 34.00649 -11.35794 38981 ft 453 kts 24°
2026-04-21 21:02 34.06151 -11.32146 38981 ft 453 kts 23°
2026-04-21 21:02 34.11693 -11.28467 38979 ft 453 kts 24°
2026-04-21 21:03 34.17213 -11.24797 38978 ft 453 kts 24°
2026-04-21 21:03 34.22738 -11.21118 38973 ft 453 kts 24°
2026-04-21 21:04 34.28263 -11.17433 38973 ft 454 kts 24°
2026-04-21 21:04 34.33787 -11.13743 38972 ft 454 kts 24°
2026-04-21 21:05 34.39316 -11.10045 38972 ft 454 kts 24°
2026-04-21 21:05 34.44846 -11.06340 38968 ft 454 kts 24°
2026-04-21 21:06 34.50375 -11.02630 38968 ft 455 kts 24°
2026-04-21 21:06 34.55914 -10.98908 38964 ft 455 kts 24°
2026-04-21 21:07 34.61414 -10.95207 38967 ft 455 kts 24°
2026-04-21 21:07 34.66993 -10.91446 38966 ft 456 kts 24°
2026-04-21 21:08 34.72496 -10.87731 38966 ft 456 kts 24°
2026-04-21 21:08 34.78048 -10.83978 38964 ft 456 kts 24°
2026-04-21 21:09 34.83598 -10.80219 38967 ft 457 kts 24°
2026-04-21 21:09 34.89151 -10.76453 38963 ft 457 kts 24°
2026-04-21 21:10 34.94710 -10.72677 38965 ft 457 kts 24°
2026-04-21 21:10 35.00271 -10.68893 38963 ft 458 kts 24°
2026-04-21 21:11 35.05833 -10.65103 38963 ft 458 kts 24°
2026-04-21 21:11 35.11391 -10.61279 38961 ft 458 kts 25°
2026-04-21 21:12 35.16940 -10.57443 38957 ft 458 kts 25°
2026-04-21 21:12 35.22507 -10.53630 38956 ft 458 kts 25°
2026-04-21 21:13 35.28074 -10.49822 38960 ft 459 kts 25°
2026-04-21 21:13 35.33646 -10.46003 38957 ft 459 kts 25°
2026-04-21 21:14 35.39220 -10.42177 38953 ft 459 kts 25°
2026-04-21 21:14 35.44794 -10.38342 38952 ft 460 kts 25°
2026-04-21 21:15 35.50375 -10.34495 38950 ft 460 kts 25°
2026-04-21 21:15 35.55960 -10.30639 38955 ft 461 kts 25°
2026-04-21 21:16 35.61546 -10.26775 38957 ft 461 kts 25°
2026-04-21 21:16 35.67138 -10.22900 38952 ft 461 kts 25°
2026-04-21 21:17 35.72728 -10.19021 38954 ft 462 kts 25°
2026-04-21 21:17 35.78284 -10.15160 38960 ft 462 kts 25°
2026-04-21 21:18 35.83874 -10.11269 38963 ft 462 kts 25°
2026-04-21 21:18 35.89471 -10.07369 38958 ft 462 kts 25°
2026-04-21 21:19 35.95068 -10.03460 38949 ft 462 kts 25°
2026-04-21 21:19 36.00663 -9.99554 38950 ft 462 kts 25°
2026-04-21 21:20 36.06266 -9.95657 38945 ft 462 kts 25°
2026-04-21 21:20 36.11865 -9.91760 38946 ft 462 kts 25°
2026-04-21 21:21 36.17466 -9.87854 38952 ft 462 kts 25°
2026-04-21 21:21 36.23064 -9.83942 38946 ft 462 kts 25°
2026-04-21 21:22 36.28661 -9.80025 38942 ft 462 kts 25°
2026-04-21 21:22 36.34260 -9.76100 38937 ft 462 kts 25°
2026-04-21 21:23 36.39853 -9.72172 38940 ft 462 kts 25°
2026-04-21 21:23 36.45451 -9.68234 38933 ft 462 kts 25°
2026-04-21 21:24 36.51049 -9.64289 38935 ft 463 kts 25°
2026-04-21 21:24 36.56647 -9.60338 38934 ft 463 kts 25°
2026-04-21 21:25 36.62252 -9.56375 38934 ft 463 kts 25°
2026-04-21 21:25 36.67851 -9.52410 38929 ft 463 kts 25°
2026-04-21 21:26 36.73455 -9.48434 38932 ft 464 kts 25°
2026-04-21 21:26 36.79064 -9.44448 38933 ft 464 kts 25°
2026-04-21 21:27 36.84669 -9.40457 38932 ft 464 kts 25°
2026-04-21 21:27 36.90278 -9.36458 38934 ft 464 kts 25°
2026-04-21 21:28 36.95888 -9.32450 38935 ft 465 kts 25°
2026-04-21 21:29 37.04313 -9.26419 38932 ft 465 kts 25°
2026-04-21 21:29 37.09932 -9.22388 38931 ft 465 kts 25°
2026-04-21 21:30 37.15550 -9.18350 38932 ft 466 kts 25°
2026-04-21 21:30 37.21131 -9.14332 38924 ft 465 kts 25°
2026-04-21 21:30 37.23970 -9.12285 38702 ft 464 kts 25°
2026-04-21 21:31 37.26731 -9.10294 38050 ft 466 kts 25°
2026-04-21 21:31 37.29597 -9.08227 37138 ft 470 kts 25°
2026-04-21 21:31 37.32411 -9.06197 36156 ft 477 kts 25°
2026-04-21 21:31 37.35353 -9.04072 35128 ft 484 kts 25°
2026-04-21 21:32 37.38246 -9.01979 34224 ft 488 kts 26°
2026-04-21 21:32 37.41194 -8.99842 33289 ft 491 kts 26°
2026-04-21 21:32 37.44154 -8.97695 32313 ft 493 kts 26°
2026-04-21 21:32 37.47132 -8.95533 31418 ft 494 kts 26°
2026-04-21 21:33 37.50114 -8.93366 30530 ft 495 kts 26°
2026-04-21 21:33 37.53082 -8.91207 29907 ft 491 kts 27°
2026-04-21 21:33 37.55074 -8.89759 29442 ft 487 kts 25°
2026-04-21 21:33 37.58113 -8.88089 29148 ft 467 kts 13°
2026-04-21 21:34 37.61226 -8.87267 28733 ft 450 kts
2026-04-21 21:34 37.64253 -8.87325 28291 ft 433 kts 346°
2026-04-21 21:34 37.67113 -8.88250 27899 ft 420 kts 334°
2026-04-21 21:34 37.69801 -8.89666 27492 ft 419 kts 331°
2026-04-21 21:35 37.72482 -8.91107 27092 ft 419 kts 332°
2026-04-21 21:35 37.75204 -8.92440 26684 ft 419 kts 334°
2026-04-21 21:35 37.77940 -8.93660 26278 ft 417 kts 335°
2026-04-21 21:35 37.80688 -8.94818 25874 ft 415 kts 336°
2026-04-21 21:36 37.83435 -8.95945 25470 ft 414 kts 336°
2026-04-21 21:36 37.86176 -8.97004 25142 ft 412 kts 341°
2026-04-21 21:36 37.89062 -8.97412 24428 ft 425 kts 356°
2026-04-21 21:36 37.92039 -8.96979 23296 ft 437 kts
2026-04-21 21:37 37.95067 -8.96182 21732 ft 451 kts
2026-04-21 21:37 37.98063 -8.95304 21397 ft 431 kts
2026-04-21 21:37 38.00952 -8.94475 21751 ft 427 kts
2026-04-21 21:37 38.03889 -8.93675 21913 ft 434 kts
2026-04-21 21:38 38.06844 -8.92896 21915 ft 433 kts
2026-04-21 21:38 38.09794 -8.92130 21916 ft 432 kts
2026-04-21 21:38 38.12741 -8.91371 21915 ft 433 kts
2026-04-21 21:38 38.15694 -8.90610 21910 ft 433 kts
2026-04-21 21:39 38.18645 -8.89849 21790 ft 432 kts
2026-04-21 21:39 38.21589 -8.89089 21374 ft 430 kts
2026-04-21 21:39 38.24511 -8.88334 20642 ft 429 kts
2026-04-21 21:39 38.27433 -8.87578 19781 ft 427 kts
2026-04-21 21:40 38.30333 -8.86827 18950 ft 424 kts
2026-04-21 21:40 38.33208 -8.86082 18134 ft 420 kts
2026-04-21 21:40 38.36062 -8.85341 17218 ft 417 kts
2026-04-21 21:40 38.38896 -8.84604 16328 ft 414 kts
2026-04-21 21:41 38.41706 -8.83873 15455 ft 410 kts
2026-04-21 21:41 38.44488 -8.83150 14613 ft 406 kts
2026-04-21 21:41 38.47240 -8.82434 13789 ft 402 kts
2026-04-21 21:41 38.49970 -8.81723 12904 ft 398 kts
2026-04-21 21:42 38.52629 -8.81028 12542 ft 380 kts
2026-04-21 21:42 38.55151 -8.80365 12305 ft 360 kts
2026-04-21 21:42 38.57535 -8.79739 12114 ft 341 kts
2026-04-21 21:42 38.59793 -8.79147 11938 ft 323 kts
2026-04-21 21:43 38.61934 -8.78586 11772 ft 305 kts
2026-04-21 21:43 38.63975 -8.78052 11453 ft 296 kts
2026-04-21 21:43 38.65984 -8.77531 10971 ft 293 kts
2026-04-21 21:43 38.67974 -8.77015 10500 ft 291 kts
2026-04-21 21:44 38.69951 -8.76500 10036 ft 289 kts
2026-04-21 21:44 38.71907 -8.75989 9558 ft 286 kts
2026-04-21 21:44 38.73857 -8.75479 9181 ft 284 kts
2026-04-21 21:44 38.75788 -8.74973 8844 ft 282 kts
2026-04-21 21:45 38.77706 -8.74470 8512 ft 280 kts
2026-04-21 21:45 38.79611 -8.73971 8192 ft 279 kts
2026-04-21 21:45 38.81500 -8.73474 7880 ft 276 kts
2026-04-21 21:45 38.83377 -8.72982 7556 ft 275 kts
2026-04-21 21:46 38.85251 -8.72490 7231 ft 274 kts
2026-04-21 21:46 38.87108 -8.72001 6983 ft 270 kts
2026-04-21 21:46 38.88915 -8.71523 6864 ft 263 kts
2026-04-21 21:46 38.90715 -8.71049 6896 ft 268 kts
2026-04-21 21:47 38.92537 -8.70569 6898 ft 267 kts
2026-04-21 21:47 38.94361 -8.70259 6877 ft 262 kts 352°
2026-04-21 21:47 38.96054 -8.70911 6646 ft 252 kts 322°
2026-04-21 21:47 38.97234 -8.72471 6335 ft 241 kts 292°
2026-04-21 21:48 38.97603 -8.74490 5966 ft 230 kts 261°
2026-04-21 21:48 38.97276 -8.76466 5638 ft 226 kts 250°
2026-04-21 21:48 38.96863 -8.78407 5320 ft 225 kts 253°
2026-04-21 21:48 38.96591 -8.80395 5017 ft 226 kts 260°
2026-04-21 21:49 38.96468 -8.82400 4737 ft 225 kts 264°
2026-04-21 21:49 38.96437 -8.84401 4469 ft 223 kts 266°
2026-04-21 21:49 38.96447 -8.86389 4156 ft 222 kts 268°
2026-04-21 21:49 38.96471 -8.88358 4030 ft 222 kts 268°
2026-04-21 21:50 38.96497 -8.90356 4014 ft 224 kts 268°
2026-04-21 21:50 38.96522 -8.92317 4012 ft 213 kts 268°
2026-04-21 21:50 38.96546 -8.94142 4008 ft 196 kts 268°
2026-04-21 21:50 38.96567 -8.95820 4005 ft 181 kts 268°
2026-04-21 21:51 38.96583 -8.97428 4018 ft 184 kts 268°
2026-04-21 21:51 38.96597 -8.99055 4007 ft 180 kts 267°
2026-04-21 21:51 38.96610 -9.00669 4010 ft 182 kts 268°
2026-04-21 21:51 38.96606 -9.02280 4009 ft 179 kts 259°
2026-04-21 21:52 38.96026 -9.03637 3950 ft 179 kts 221°
2026-04-21 21:52 38.95002 -9.04505 3728 ft 181 kts 208°
2026-04-21 21:52 38.93860 -9.05159 3479 ft 178 kts 204°
2026-04-21 21:52 38.92696 -9.05773 3261 ft 183 kts 205°
2026-04-21 21:53 38.91526 -9.06403 2992 ft 181 kts 205°
2026-04-21 21:53 38.90354 -9.07032 2772 ft 184 kts 205°
2026-04-21 21:53 38.89177 -9.07661 2524 ft 180 kts 205°
2026-04-21 21:53 38.88007 -9.08288 2218 ft 183 kts 206°
2026-04-21 21:54 38.86853 -9.08936 2008 ft 189 kts 206°
2026-04-21 21:54 38.85584 -9.09613 2097 ft 201 kts 204°
2026-04-21 21:54 38.84280 -9.10266 1927 ft 195 kts 204°
2026-04-21 21:54 38.83093 -9.10882 1591 ft 175 kts 206°
2026-04-21 21:55 38.81985 -9.11511 1496 ft 186 kts 207°
2026-04-21 21:55 38.80756 -9.12245 2183 ft 204 kts 207°
2026-04-21 21:55 38.79442 -9.13026 3247 ft 209 kts 205°
2026-04-21 21:55 38.78108 -9.13717 4388 ft 207 kts 203°
2026-04-21 21:56 38.76717 -9.14418 5146 ft 224 kts 203°
2026-04-21 21:56 38.75219 -9.15228 5735 ft 241 kts 210°
2026-04-21 21:56 38.74001 -9.16688 5962 ft 245 kts 237°
2026-04-21 21:56 38.73494 -9.18768 5997 ft 251 kts 265°
2026-04-21 21:57 38.73870 -9.20969 6002 ft 260 kts 294°
2026-04-21 21:57 38.75064 -9.22732 5999 ft 269 kts 322°
2026-04-21 21:57 38.76830 -9.23615 6002 ft 278 kts 351°
2026-04-21 21:57 38.78763 -9.23380 6004 ft 283 kts 16°
2026-04-21 21:58 38.80606 -9.22485 6001 ft 284 kts 23°
2026-04-21 21:58 38.82406 -9.21439 6005 ft 284 kts 24°
2026-04-21 21:58 38.84208 -9.20382 6005 ft 286 kts 24°
2026-04-21 21:58 38.86009 -9.19328 6002 ft 283 kts 24°
2026-04-21 21:59 38.87815 -9.18314 6003 ft 284 kts 20°
2026-04-21 21:59 38.89664 -9.17433 5995 ft 283 kts 19°
2026-04-21 21:59 38.91509 -9.16576 6005 ft 283 kts 19°
2026-04-21 21:59 38.93364 -9.15713 6014 ft 283 kts 19°
2026-04-21 22:00 38.95209 -9.14862 6004 ft 277 kts 19°
2026-04-21 22:00 38.96977 -9.14040 5927 ft 266 kts 19°
2026-04-21 22:00 38.98718 -9.13228 5549 ft 267 kts 19°
2026-04-21 22:00 39.00487 -9.12399 5042 ft 272 kts 19°
2026-04-21 22:01 39.02119 -9.11224 4618 ft 268 kts 45°
2026-04-21 22:01 39.03090 -9.09313 4582 ft 248 kts 73°
2026-04-21 22:01 39.03317 -9.07228 4572 ft 227 kts 99°
2026-04-21 22:01 39.02921 -9.05380 4542 ft 204 kts 123°
2026-04-21 22:02 39.02114 -9.03987 4534 ft 194 kts 143°
2026-04-21 22:02 39.01004 -9.03045 4537 ft 188 kts 163°
2026-04-21 22:02 38.99765 -9.02658 4530 ft 182 kts 182°
2026-04-21 22:02 38.98521 -9.02821 4447 ft 179 kts 197°
2026-04-21 22:03 38.97331 -9.03312 4215 ft 178 kts 204°
2026-04-21 22:03 38.96175 -9.03914 3983 ft 181 kts 205°
2026-04-21 22:03 38.95016 -9.04534 3738 ft 180 kts 205°
2026-04-21 22:03 38.93870 -9.05147 3496 ft 179 kts 205°
2026-04-21 22:04 38.92701 -9.05775 3264 ft 184 kts 205°
2026-04-21 22:04 38.91523 -9.06407 2992 ft 183 kts 206°
2026-04-21 22:04 38.90361 -9.07030 2766 ft 179 kts 205°
2026-04-21 22:04 38.89190 -9.07659 2512 ft 184 kts 206°
2026-04-21 22:05 38.88030 -9.08281 2303 ft 173 kts 205°
2026-04-21 22:05 38.86956 -9.08857 2043 ft 162 kts 206°
2026-04-21 22:05 38.85958 -9.09392 1820 ft 150 kts 206°
2026-04-21 22:05 38.85021 -9.09898 1622 ft 147 kts 205°
2026-04-21 22:06 38.84083 -9.10411 1412 ft 145 kts 206°
2026-04-21 22:06 38.83147 -9.10911 1199 ft 146 kts 204°
2026-04-21 22:06 38.82206 -9.11394 958 ft 146 kts 205°
2026-04-21 22:06 38.81278 -9.11911 883 ft 146 kts 206°
2026-04-21 22:07 38.80335 -9.12419 651 ft 148 kts 204°
2026-04-21 22:07 38.79414 -9.12904 429 ft 144 kts 205°
2026-04-21 22:07 38.78510 -9.13400 354 ft 132 kts 205°
2026-04-21 22:07 38.77852 -9.13747 355 ft 73 kts 201°
2026-04-21 22:08 38.77485 -9.13896 358 ft 38 kts 183°
2026-04-21 22:08 38.77337 -9.13892 358 ft 0 kts 181°
2026-04-21 22:08 38.77302 -9.13893 352 ft 14 kts 181°
2026-04-21 22:08 38.77235 -9.13831 354 ft 6 kts 94°
2026-04-21 22:09 38.77247 -9.13786 352 ft 13 kts 71°
2026-04-21 22:09 38.77278 -9.13611 359 ft 27 kts 78°
2026-04-21 22:09 38.77321 -9.13373 360 ft 26 kts 77°
2026-04-21 22:09 38.77364 -9.13228 356 ft 12 kts 79°
2026-04-21 22:10 38.77373 -9.13149 351 ft 7 kts 78°
2026-04-21 22:10 38.77374 -9.13142 351 ft 0 kts 78°